Lapse_Rate
6.2 6.3 6.2 6.1 6.3 6.4 6.5 6.6 6.6 6.6 6.5 6.2 6.1 6.1 6.1 5.9 5.9 6.1 6.5 6.1 6.1 5.7 5.8 5.5 5.6 5.4 5.4 5.6 5.4 5.3 4.2 4.5 6.7 6.0 7.2 7.0 6.9 6.8 7.1 6.8 6.6 6.3 6.3 6.5 6.6
6.1 6.3 6.4 6.5 6.5 6.5 6.5 6.4 6.2 6.2 6.3 6.3 6.0 6.0 6.0 5.8 5.8 6.3 6.0 6.2 5.9 6.1 5.9 6.0 5.8 5.7 5.3 5.3 4.8 4.6 4.5 5.2 6.4 6.2 6.2 6.4 6.1 6.1 6.3 6.8 6.8 6.6 6.4 6.3 6.3
5.8 6.0 6.1 6.2 6.2 6.3 6.5 6.7 6.6 6.4 6.2 6.0 5.9 5.9 5.6 5.4 5.4 6.3 6.1 6.0 6.1 6.0 6.1 6.1 5.7 5.6 5.7 5.4 5.2 5.4 5.2 6.6 6.0 6.0 5.7 6.0 6.2 6.1 5.3 6.1 7.2 6.4 5.6 5.9 6.1
5.5 5.6 5.7 5.9 6.0 6.1 6.3 6.6 6.6 6.5 6.3 6.0 5.9 5.8 5.4 5.1 5.0 5.5 5.7 5.6 5.7 5.7 5.6 5.5 5.5 5.5 5.7 5.3 6.5 5.1 5.9 6.6 6.5 6.2 5.8 5.9 6.1 6.4 5.9 6.4 6.8 6.0 5.4 6.2 6.6
5.4 5.5 5.6 5.7 5.9 5.9 6.0 6.3 6.5 6.4 6.3 6.0 5.9 5.7 5.4 5.3 5.7 5.6 5.2 5.2 5.0 4.9 5.0 5.4 5.1 5.4 5.6 6.0 5.5 4.6 6.2 5.9 5.8 5.5 6.1 6.1 5.9 6.4 5.9 7.3 6.4 6.2 5.6 6.1 6.0
5.1 5.3 5.4 5.8 5.8 5.8 5.7 5.8 6.1 6.2 6.0 5.9 5.7 5.5 5.2 5.5 5.1 5.5 5.1 5.0 5.0 5.1 5.2 5.2 5.0 4.8 4.2 4.8 4.7 5.0 4.5 4.8 5.0 5.5 5.8 5.9 6.5 5.8 6.8 7.1 6.5 6.4 5.9 6.6 6.5
4.8 5.0 5.1 5.6 5.8 5.7 5.8 5.9 5.9 6.0 5.9 5.8 5.6 5.4 5.3 5.3 5.2 4.8 5.0 4.9 4.9 4.7 4.6 4.6 4.5 4.0 3.9 4.3 4.4 4.4 4.4 4.5 5.0 5.7 5.6 5.7 5.4 6.4 6.9 6.8 6.7 6.5 5.7 6.3 6.6
4.7 5.0 5.2 5.5 5.6 5.7 5.5 5.5 5.5 5.4 5.2 5.2 5.3 5.2 4.7 5.0 4.8 4.3 4.1 4.1 4.4 4.7 4.8 4.7 4.7 4.3 4.3 4.3 3.9 4.6 4.2 4.0 5.4 5.5 6.1 5.0 4.9 6.3 6.1 6.6 6.7 6.3 5.9 5.9 5.9
4.8 5.0 5.2 5.5 5.4 5.3 5.1 5.1 5.1 5.2 5.0 4.9 4.9 5.0 4.7 4.5 4.6 4.5 4.3 4.0 4.0 3.8 4.0 4.1 4.2 4.2 4.3 4.1 4.1 4.0 4.4 4.9 5.4 6.0 5.6 5.4 5.2 6.0 5.9 6.1 6.1 6.0 6.0 5.9 5.9
4.8 4.8 4.8 5.0 4.9 4.8 4.8 4.7 4.8 5.0 5.0 4.8 4.8 4.8 4.6 4.6 4.4 4.1 4.0 4.0 4.0 3.8 3.8 4.1 4.1 3.9 3.8 4.1 4.2 4.8 5.2 5.7 5.8 6.1 5.6 5.6 5.6 6.2 5.9 5.9 6.2 6.1 5.9 5.6 5.9
4.9 4.7 4.5 4.6 4.6 4.7 4.9 4.9 5.0 5.1 5.2 4.8 4.5 4.7 4.2 4.5 4.2 4.2 4.0 3.9 3.8 3.6 3.8 3.9 3.6 3.7 5.2 5.1 5.3 5.7 5.6 5.6 6.0 6.7 6.1 5.5 5.8 5.9 6.2 6.0 6.3 6.1 5.4 5.2 5.4
5.0 4.7 4.5 4.3 4.3 4.6 4.7 4.8 4.9 4.9 5.6 5.5 5.4 4.9 4.6 4.4 4.2 4.2 3.9 3.9 3.8 4.1 4.1 3.5 3.7 5.1 4.8 4.9 5.2 5.6 5.9 5.9 6.1 6.7 6.0 5.7 5.7 5.8 6.4 5.9 5.6 6.3 6.4 5.9 5.6
4.3 4.3 4.2 4.2 4.4 4.5 4.6 4.8 4.8 4.9 5.0 5.2 5.1 4.9 4.5 4.6 4.7 5.0 4.8 4.7 4.4 4.5 4.6 4.4 5.0 5.4 5.6 5.3 5.4 5.6 6.0 6.1 6.2 6.3 6.6 6.3 5.7 6.6 6.4 6.1 5.8 6.1 6.5 6.4 6.1
4.3 4.3 4.3 4.5 4.8 4.8 4.8 4.8 4.9 4.9 5.1 4.7 4.8 4.8 4.8 5.0 5.2 5.3 5.4 5.4 5.4 5.7 5.3 5.3 5.9 5.8 5.8 6.2 6.0 6.1 6.4 6.5 6.7 6.7 6.3 6.3 5.0 6.4 6.4 6.5 6.6 6.6 6.7 6.4 6.0
4.1 4.1 4.2 4.3 4.5 4.6 4.8 5.0 5.1 5.3 4.6 5.4 5.3 5.5 5.4 5.6 5.7 6.1 6.1 6.2 6.2 5.9 6.1 6.3 6.2 6.5 6.5 6.4 6.5 6.5 6.5 6.3 6.3 6.1 5.8 6.0 6.1 5.6 6.6 6.0 6.2 6.4 6.3 6.2 6.0
4.4 4.4 4.5 4.6 4.8 5.1 5.2 5.2 5.5 5.7 5.1 6.0 5.8 5.8 5.6 5.9 6.2 6.2 6.5 6.5 6.5 6.2 6.2 6.4 6.3 6.3 6.4 6.5 6.7 6.7 6.5 6.3 6.3 6.0 5.2 6.0 6.6 6.2 5.7 5.6 5.7 5.8 5.9 6.0 5.9
4.9 5.0 4.9 5.0 5.1 5.3 5.2 5.3 5.7 5.6 6.2 5.3 5.3 5.5 6.0 6.2 6.1 5.8 6.0 6.0 6.1 6.1 6.1 6.1 6.3 6.3 6.3 6.3 6.5 6.5 6.1 6.1 5.6 5.1 5.7 6.3 6.2 5.7 5.9 5.8 5.6 5.5 5.6 5.7 5.6
5.4 5.3 5.2 5.0 5.0 5.0 4.9 5.1 5.2 6.2 5.8 5.3 5.3 5.8 6.0 5.6 5.8 5.7 5.6 5.9 5.7 5.7 5.7 5.7 6.0 6.0 5.7 5.5 5.8 5.9 6.2 7.0 6.3 5.9 5.9 6.4 5.8 6.3 5.9 5.8 5.3 5.1 5.1 5.2 5.2
5.0 5.0 4.9 5.0 4.7 4.7 4.8 4.8 5.4 4.7 4.5 4.8 5.2 5.7 6.7 5.6 5.6 5.6 5.9 5.9 5.7 5.8 5.4 5.1 5.5 5.5 5.7 5.6 5.9 5.8 6.0 6.4 6.0 6.6 6.4 6.6 5.9 5.9 5.6 5.2 4.7 4.8 5.0 5.1 5.0
4.3 4.2 4.8 4.4 4.7 4.3 4.5 4.8 4.5 4.0 4.3 4.6 4.3 5.1 5.2 5.9 5.6 5.9 6.1 5.8 6.0 6.1 5.8 5.5 5.4 5.5 5.7 5.6 5.7 5.8 6.0 5.9 6.2 4.9 5.2 6.1 7.0 6.1 5.3 5.2 5.3 5.3 5.3 5.3 5.3
4.1 4.3 4.4 4.3 4.7 4.4 4.3 4.3 4.4 4.6 4.0 4.2 4.7 4.7 5.0 5.3 5.9 6.1 6.2 6.3 6.3 6.2 6.2 6.2 6.0 5.5 5.8 5.8 5.9 5.8 5.7 6.1 6.2 6.2 4.0 4.2 5.9 6.2 6.1 6.3 6.5 6.1 6.1 6.1 5.8
4.4 4.2 4.3 4.0 4.9 4.2 4.2 4.4 4.3 4.6 4.7 4.6 4.8 5.0 5.3 5.4 5.3 5.9 6.5 6.5 6.5 6.7 6.6 6.3 5.9 6.0 6.2 5.8 5.9 5.7 5.7 5.6 5.9 6.2 5.8 5.3 5.7 6.3 6.4 6.4 6.6 6.7 6.7 6.6 6.3
4.1 4.2 4.0 3.5 4.0 4.3 4.3 4.7 5.0 5.1 5.4 5.4 5.4 5.1 5.2 5.3 5.4 5.8 6.1 5.9 6.3 6.5 6.6 6.2 6.2 6.0 6.7 6.2 6.6 6.0 5.8 5.7 5.9 5.6 5.3 5.5 6.1 6.4 6.1 6.4 6.7 7.0 7.1 6.8 6.8
3.8 3.4 3.7 3.8 4.0 4.2 4.3 4.4 5.0 5.1 5.4 5.7 5.8 5.6 5.2 5.6 5.7 5.6 5.9 5.3 5.9 6.3 6.6 6.3 6.3 6.3 6.0 6.7 6.6 6.0 5.8 5.8 6.0 5.7 6.1 6.2 6.7 6.8 6.9 6.9 6.9 6.8 6.9 7.2 7.2
3.4 3.6 3.9 4.0 4.4 5.0 5.3 5.3 5.6 5.5 5.1 5.5 5.5 5.8 5.7 5.7 5.9 6.0 5.7 5.9 6.1 6.2 6.5 6.3 6.2 6.5 6.5 6.4 6.5 6.3 6.5 6.8 6.3 6.2 6.1 6.5 6.7 7.3 7.3 7.0 6.9 7.1 7.3 7.4 7.4
3.6 4.0 4.2 4.5 5.1 5.3 5.7 5.6 5.7 6.0 6.1 6.3 6.2 6.5 6.4 6.5 6.5 6.2 6.2 6.0 5.9 6.3 6.3 6.3 6.3 6.5 6.5 6.7 6.6 6.2 6.5 6.9 6.9 6.8 6.7 6.8 7.0 7.2 7.5 7.5 7.5 7.5 7.2 7.1 7.0
4.1 4.6 4.9 5.2 5.5 5.7 5.7 5.9 6.3 7.1 7.3 7.3 7.3 7.5 7.4 7.1 6.9 6.8 6.7 6.8 6.5 6.1 6.4 6.4 6.4 6.5 6.6 7.1 6.7 6.6 7.2 7.4 7.2 7.1 7.2 7.4 7.6 7.6 7.6 7.7 7.7 7.5 7.4 7.2 7.3
Wind_Speed
25 26 26 26 27 27 27 26 24 22 21 20 19 18 17 13 12 10 19 11 13 18 9 12 13 13 9 8 11 4 4 10 21 14 20 9 3 5 4 2 2 3 5 8 15
26 27 28 28 29 29 29 28 27 25 23 21 19 18 15 13 13 19 19 21 14 23 12 17 17 14 9 11 6 8 7 13 10 12 8 9 0 2 4 5 5 6 7 12 12
29 29 29 29 30 30 29 29 28 27 25 22 21 18 14 12 8 7 11 28 15 19 15 14 14 15 12 9 15 10 15 14 15 11 4 7 7 7 4 6 9 8 15 16 11
30 31 31 31 33 33 32 30 28 27 26 24 20 15 10 8 7 4 5 10 14 17 13 14 13 14 11 15 17 13 17 17 17 18 13 7 6 9 9 11 8 7 18 16 17
31 33 34 34 35 35 35 33 30 27 25 23 18 11 6 7 9 7 9 11 10 12 13 14 16 14 10 12 17 18 19 16 12 9 11 7 12 11 8 14 6 9 16 17 13
33 34 36 36 36 37 37 36 32 28 25 23 18 11 6 13 3 7 5 7 10 12 12 12 7 14 8 14 12 8 18 14 13 13 15 11 11 7 10 9 13 11 12 14 14
35 36 38 38 39 40 38 32 27 24 24 17 9 10 10 13 3 4 4 7 8 11 10 10 13 6 6 14 9 12 10 9 9 11 11 4 10 11 17 11 10 9 10 11 12
37 39 40 40 41 42 38 31 24 21 15 8 12 12 5 3 2 4 6 5 4 6 4 5 4 6 8 10 7 5 6 8 8 19 13 11 9 10 12 10 10 7 8 10 10
36 39 41 42 42 40 37 33 24 10 3 5 8 6 3 2 3 3 3 7 6 4 4 3 2 5 7 8 7 9 7 13 14 14 6 8 4 7 5 5 5 7 8 8 8
37 39 40 41 39 37 37 38 4 4 7 5 4 1 4 1 4 1 1 6 5 6 4 5 5 5 5 7 11 8 14 14 12 6 7 8 9 9 7 5 7 7 7 9 11
38 39 40 39 38 33 22 2 4 3 5 7 9 10 5 4 3 5 0 3 5 6 6 9 5 10 17 16 13 14 15 15 11 3 6 9 9 9 10 8 9 7 10 10 9
39 40 42 43 39 27 11 5 3 4 10 12 11 7 3 0 3 6 1 5 6 9 10 4 12 13 11 14 14 16 15 16 9 10 3 6 10 9 9 1 8 10 10 9 7
38 41 43 42 31 10 7 7 5 3 6 4 6 4 3 4 2 8 5 5 6 10 14 15 8 1 10 17 12 10 9 7 8 5 3 3 8 14 4 12 12 12 9 9 8
37 39 41 36 7 8 3 10 7 1 4 6 5 4 4 3 3 3 1 2 6 6 10 8 12 11 4 5 6 7 6 4 4 3 2 3 5 3 7 11 12 9 8 8 10
39 40 39 25 6 5 9 14 7 2 6 2 5 2 2 4 3 3 2 3 7 4 0 3 1 1 6 4 3 3 5 5 4 2 5 4 3 5 14 6 5 5 7 7 7
40 40 37 5 4 8 16 10 2 3 6 3 3 1 3 5 5 4 3 1 1 4 6 9 3 2 2 3 3 3 0 3 2 3 3 8 10 3 3 2 3 6 6 6 6
39 41 24 8 5 17 11 3 4 4 2 4 4 6 10 9 4 5 4 5 4 3 3 4 4 3 1 3 2 3 3 1 1 0 5 4 5 1 4 3 5 5 4 4 4
39 42 11 7 10 12 4 3 6 7 6 10 12 17 10 5 1 4 4 5 3 2 4 5 5 3 2 2 1 6 1 3 4 4 2 4 4 3 2 3 3 4 3 6 4
32 7 5 2 13 4 3 4 4 6 8 13 16 9 1 6 5 4 4 5 6 6 5 2 2 2 5 3 3 1 2 2 2 4 1 4 3 4 3 3 4 4 8 7 6
9 8 5 12 10 2 3 5 5 10 11 10 6 6 10 14 11 8 7 6 3 3 4 2 4 1 1 1 2 2 4 1 1 2 4 4 2 4 4 4 3 4 5 4 6
5 6 2 17 1 3 3 4 6 12 10 6 9 9 10 12 7 6 3 5 6 4 4 2 2 3 3 4 3 1 2 0 2 3 3 1 4 4 6 6 8 4 4 6 5
4 4 10 7 4 1 4 5 8 8 8 7 6 6 5 9 4 5 3 6 10 6 5 4 3 2 2 2 4 2 2 2 3 3 2 1 4 3 7 6 4 3 4 5 6
4 6 4 3 3 4 6 7 9 5 4 4 5 4 4 4 4 5 6 6 10 10 7 8 2 1 4 2 4 1 2 1 4 2 3 0 2 2 4 5 4 2 3 6 6
3 4 2 3 1 1 5 9 4 1 4 2 4 8 2 3 4 5 10 2 5 8 11 1 3 4 3 5 2 2 6 6 5 1 2 4 4 5 8 7 7 5 7 8 7
1 3 3 3 8 10 11 3 10 7 5 5 3 6 2 3 2 4 6 5 5 5 3 2 3 8 8 8 8 3 5 7 5 6 5 5 7 8 5 6 9 7 7 8 7
3 2 3 9 6 12 7 4 13 12 5 6 6 8 3 5 6 7 2 3 5 4 3 3 3 6 6 9 8 9 9 9 9 8 4 7 8 7 6 8 9 7 6 6 6
1 1 2 8 7 8 10 13 5 11 4 9 6 3 5 9 4 5 7 7 7 4 3 2 2 3 3 2 2 5 7 14 3 6 6 4 3 9 5 7 6 6 6 6 5
Wind_Direction
355 353 350 347 343 340 336 334 329 324 319 315 313 310 310 306 298 263 247 228 195 201 197 172 201 219 210 221 229 237 246 231 237 238 261 259 183 101 129 29 56 85 68 107 128
353 350 347 343 340 336 332 330 325 320 316 311 308 307 303 305 288 261 245 227 222 177 184 179 186 190 205 214 210 208 224 241 260 258 278 324 234 220 149 182 222 120 108 122 136
351 348 345 340 337 333 329 325 321 318 314 309 306 304 301 305 277 255 349 217 185 180 201 187 184 186 208 218 214 212 236 235 254 279 336 311 305 292 228 245 244 205 163 155 162
349 345 343 339 334 330 326 322 318 313 308 303 300 295 280 263 260 46 81 145 183 179 215 200 203 182 207 218 211 240 224 236 258 276 291 271 284 260 256 234 226 304 150 162 173
349 345 342 337 333 328 325 321 316 309 303 295 289 283 272 226 251 117 144 161 172 190 215 204 213 193 205 211 235 229 238 251 256 251 247 275 267 247 271 268 250 246 139 166 179
348 345 341 336 332 328 323 318 314 307 299 292 271 239 233 246 39 128 169 156 168 192 214 210 221 228 255 245 238 238 230 256 245 258 265 242 253 253 247 255 253 244 161 170 176
347 344 341 336 333 328 324 319 312 305 301 294 258 190 230 240 23 117 180 191 208 203 219 229 247 275 239 273 308 291 279 293 245 256 257 266 259 245 252 239 265 267 166 168 180
347 345 340 338 336 330 325 322 319 306 294 280 166 187 247 53 6 241 204 206 226 245 269 313 279 294 276 293 282 289 279 259 232 233 236 171 250 280 254 215 234 237 162 178 187
347 344 340 338 336 331 323 316 314 298 289 151 157 220 245 172 209 180 286 216 190 225 247 239 218 214 211 222 276 231 249 234 247 239 129 170 221 275 102 139 229 189 200 188 173
345 342 339 338 337 330 323 310 236 292 224 231 260 218 210 79 90 324 223 276 168 181 199 213 217 219 214 192 217 214 233 236 241 181 171 188 243 270 257 209 215 232 232 182 168
342 340 337 339 336 328 329 3 348 198 7 287 299 293 296 71 169 214 121 203 248 188 208 206 207 209 221 222 243 267 279 281 292 163 154 211 234 240 248 255 249 236 34 45 25
340 339 338 338 333 325 343 50 58 287 300 288 265 267 266 352 241 188 146 211 195 213 228 200 237 248 248 244 258 263 261 253 275 275 179 233 258 257 254 330 62 59 47 35 20
339 338 338 335 330 312 42 37 345 294 278 281 207 230 129 197 253 143 188 191 245 233 238 240 264 185 253 239 249 253 260 271 251 354 235 260 281 246 47 92 64 52 47 29 17
336 337 338 337 311 315 78 0 342 262 289 166 194 158 178 238 229 96 212 315 219 250 227 240 246 262 273 253 216 242 5 30 50 56 229 62 280 340 135 83 54 39 39 22 9
335 338 341 333 304 341 334 333 319 245 328 101 124 102 136 238 122 167 80 165 269 265 266 246 91 169 237 267 352 96 28 45 39 310 324 215 245 249 134 76 43 54 52 38 27
334 336 338 357 266 356 326 315 255 255 249 105 109 194 258 188 184 124 196 229 11 302 253 259 98 22 63 73 41 100 239 173 129 172 250 196 195 279 76 134 100 81 69 54 49
333 331 325 300 313 325 318 272 287 232 119 50 358 335 330 278 276 177 216 191 235 259 209 228 154 99 241 143 139 189 193 222 250 190 239 15 190 175 118 76 124 114 69 81 17
332 322 311 252 322 326 299 257 241 19 8 359 346 301 271 28 204 349 283 245 116 243 10 325 284 155 155 30 158 191 198 198 239 179 190 342 237 234 102 102 106 132 177 113 78
330 314 296 330 336 315 283 261 350 15 356 333 322 306 72 99 316 301 260 265 47 8 185 228 239 65 49 7 21 126 202 54 320 212 3 205 87 25 132 97 80 89 96 93 111
325 307 278 316 333 249 258 253 17 27 348 335 305 333 344 334 334 321 335 21 94 15 344 321 271 319 91 89 94 23 337 109 277 219 232 268 197 178 170 168 138 107 123 112 136
304 310 229 346 243 231 279 14 349 341 2 343 337 309 316 328 328 314 284 58 8 343 352 346 273 127 122 202 142 118 198 303 93 138 200 306 283 331 190 163 139 128 126 135 142
297 297 308 335 318 88 43 352 326 325 350 320 307 335 351 341 322 317 251 33 6 2 333 43 342 305 262 114 63 68 335 80 149 293 66 184 275 6 84 107 107 110 60 81 96
294 290 269 268 300 357 341 309 297 310 322 321 304 29 333 307 305 330 6 90 46 20 9 7 275 280 167 132 33 48 143 173 92 101 214 68 266 183 155 171 203 92 87 112 85
289 299 299 257 226 348 301 283 287 244 286 242 257 272 327 286 294 287 296 17 304 332 297 322 269 257 230 301 327 220 265 219 159 163 267 233 306 188 214 208 211 117 71 71 67
180 274 5 281 299 299 291 288 279 267 219 222 270 267 125 245 278 254 277 336 318 335 358 259 248 256 267 275 287 263 243 252 215 217 192 269 284 289 61 215 87 93 76 77 67
251 293 289 280 289 286 271 217 250 255 216 232 241 281 295 206 221 270 241 208 227 267 222 218 263 307 285 267 252 260 255 244 239 252 272 268 270 104 80 84 82 89 99 95 94
262 266 273 275 280 281 270 261 251 277 293 276 297 311 282 271 297 276 248 260 241 214 207 232 296 321 231 242 320 312 240 234 209 227 206 214 175 123 97 97 107 109 104 99 85